Location: ????? ??????
(37.8317°N, 23.8750°E)
Time: 12:21:48
(UTC+00:00)

Cosmos 1092 Rocket - Pass Details

Date: 20 January 2021
Orbit: 954 x 995 km, 83.0° (Epoch: 03 March)

Event Time Altitude Azimuth Distance (km) Brightness Sun altitude
Rises 16:49:37 0° 170° (S) 3,661 7.1 -14.7°
Reaches altitude 10° 16:52:11 10° 165° (SSE) 2,711 6.3 -15.2°
Maximum altitude 16:58:09 52° 91° (E) 1,192 4.1 -16.4°
Drops below altitude 10° 17:04:06 10° 17° (NNE) 2,702 6.0 -17.5°
Sets 17:06:39 0° 13° (NNE) 3,648 6.8 -18.0°
